H1 CPF 2 NER 2024 3 9 9 069 01 glonass138 H2 1805301 9138 43508 2024 3 9 0 0 0 2024 3 12 23 45 0 900 1 1 0 0 0 1 H9 10 0 60378 0.00000 0 13966317.776 -18284743.434 11055231.001 10 0 60378 900.00000 0 13238500.189 -16931108.712 13774271.016 10 0 60378 1800.00000 0 12511760.545 -15226153.821 16226358.558 10 0 60378 2700.00000 0 11841339.463 -13199435.625 18364004.996 10 0 60378 3600.00000 0 11276957.191 -10892249.261 20145809.362 10 0 60378 4500.00000 0 10860618.917 -8356137.777 21537252.378 10 0 60378 5400.00000 0 10624759.952 -5650983.420 22511358.824 10 0 60378 6300.00000 0 10590808.199 -2842758.558 23049216.268 10 0 60378 7200.00000 0 10768223.951 -1028.208 23140340.678 10 0 60378 8100.00000 0 11154057.335 2803693.852 22782882.192 10 0 60378 9000.00000 0 11733042.388 5502627.321 21983666.997 10 0 60378 9900.00000 0 12478224.544 8031336.201 20758074.095 10 0 60378 10800.00000 0 13352096.261 10332161.184 19129748.575 10 0 60378 11700.00000 0 14308194.342 12356373.627 17130155.856 10 0 60378 12600.00000 0 15293093.102 14065962.223 14797984.355 10 0 60378 13500.00000 0 16248710.730 15434978.375 12178406.824 10 0 60378 14400.00000 0 17114832.641 16450384.278 9322213.499 10 0 60378 15300.00000 0 17831745.969 17112368.165 6284832.911 10 0 60378 16200.00000 0 18342874.132 17434113.403 3125258.719 10 0 60378 17100.00000 0 18597299.746 17441031.016 -95096.867 10 0 60378 18000.00000 0 18552068.382 17169487.916 -3313600.614 10 0 60378 18900.00000 0 18174174.518 16665084.659 -6467622.929 10 0 60378 19800.00000 0 17442144.140 15980555.856 -9495765.018 10 0 60378 20700.00000 0 16347145.482 15173382.576 -12339063.598 10 0 60378 21600.00000 0 14893579.285 14303218.569 -14942148.600 10 0 60378 22500.00000 0 13099122.171 13429240.098 -17254330.291 10 0 60378 23400.00000 0 10994219.983 12607532.453 -19230593.711 10 0 60378 24300.00000 0 8621051.395 11888624.540 -20832480.417 10 0 60378 25200.00000 0 6032004.538 11315276.457 -22028839.983 10 0 60378 26100.00000 0 3287730.030 10920613.961 -22796436.538 10 0 60378 27000.00000 0 454851.588 10726688.790 -23120398.690 10 0 60378 27900.00000 0 -2396570.351 10743525.425 -22994504.460 10 0 60378 28800.00000 0 -5195716.318 10968694.178 -22421296.168 10 0 60378 29700.00000 0 -7873715.447 11387427.984 -21412023.606 10 0 60378 30600.00000 0 -10366270.707 11973277.303 -19986417.154 10 0 60378 31500.00000 0 -12616092.979 12689274.760 -18172295.809 10 0 60378 32400.00000 0 -14575043.488 13489559.661 -16005018.180 10 0 60378 33300.00000 0 -16205896.447 14321393.220 -13526787.567 10 0 60378 34200.00000 0 -17483649.770 15127478.922 -10785824.975 10 0 60378 35100.00000 0 -18396330.746 15848489.658 -7835426.508 10 0 60378 36000.00000 0 -18945264.754 16425694.729 -4732923.719 10 0 60378 36900.00000 0 -19144797.608 16803575.639 -1538567.491 10 0 60378 37800.00000 0 -19021484.989 16932320.293 1685642.654 10 0 60378 38700.00000 0 -18612784.662 16770090.393 4877160.873 10 0 60378 39600.00000 0 -17965307.880 16284966.569 7974105.475 10 0 60378 40500.00000 0 -17132704.603 15456489.384 10916454.167 10 0 60378 41400.00000 0 -16173272.213 14276731.414 13647201.107 10 0 60378 42300.00000 0 -15147388.646 12750855.257 16113453.788 10 0 60378 43200.00000 0 -14114877.803 10897133.759 18267449.158 10 0 60378 44100.00000 0 -13132417.560 8746431.023 20067470.139 10 0 60378 45000.00000 0 -12251098.622 6341165.065 21478645.677 10 0 60378 45900.00000 0 -11514235.880 3733794.205 22473619.793 10 0 60378 46800.00000 0 -10955523.317 984888.812 23033077.501 10 0 60378 47700.00000 0 -10597609.132 -1839133.050 23146118.027 10 0 60378 48600.00000 0 -10451150.412 -4668513.763 22810468.443 10 0 60378 49500.00000 0 -10514386.819 -7432805.778 22032533.556 10 0 60378 50400.00000 0 -10773251.406 -10063554.394 20827280.663 10 0 60378 51300.00000 0 -11202014.450 -12496903.818 19217960.684 10 0 60378 52200.00000 0 -11764434.091 -14676019.468 17235669.989 10 0 60378 53100.00000 0 -12415366.364 -16553226.562 14918760.212 10 0 60378 54000.00000 0 -13102767.859 -18091776.461 12312106.212 10 0 60378 54900.00000 0 -13770007.491 -19267167.198 9466245.126 10 0 60378 55800.00000 0 -14358390.419 -20067962.899 6436402.290 10 0 60378 56700.00000 0 -14809787.712 -20496077.498 3281422.241 10 0 60378 57600.00000 0 -15069260.376 -20566510.544 62625.273 10 0 60378 58500.00000 0 -15087565.974 -20306545.956 -3157388.082 10 0 60378 59400.00000 0 -14823440.678 -19754447.396 -6315960.879 10 0 60378 60300.00000 0 -14245558.684 -18957705.415 -9351607.296 10 0 60378 61200.00000 0 -13334084.446 -17970910.770 -12205218.935 10 0 60378 62100.00000 0 -12081750.350 -16853344.332 -14821225.293 10 0 60378 63000.00000 0 -10494412.631 -15666386.184 -17148684.800 10 0 60378 63900.00000 0 -8591060.557 -14470854.213 -19142284.211 10 0 60378 64800.00000 0 -6403277.207 -13324385.383 -20763226.265 10 0 60378 65700.00000 0 -3974173.454 -12278970.894 -21979987.942 10 0 60378 66600.00000 0 -1356839.149 -11378749.616 -22768934.421 10 0 60378 67500.00000 0 1387624.163 -10658152.983 -23114776.971 10 0 60378 68400.00000 0 4192407.122 -10140479.284 -23010866.204 10 0 60378 69300.00000 0 6987537.044 -9836956.917 -22459315.451 10 0 60378 70200.00000 0 9702557.161 -9746335.282 -21470952.428 10 0 60378 71100.00000 0 12269229.277 -9855019.543 -20065100.657 10 0 60378 72000.00000 0 14624147.613 -10137742.499 -18269195.431 10 0 60378 72900.00000 0 16711155.599 -10558744.110 -16118242.253 10 0 60378 73800.00000 0 18483465.715 -11073407.877 -13654128.688 10 0 60378 74700.00000 0 19905394.996 -11630284.053 -10924803.404 10 0 60378 75600.00000 0 20953645.077 -12173413.492 -7983338.692 10 0 60378 76500.00000 0 21618074.755 -12644853.374 -4886895.014 10 0 60378 77400.00000 0 21901934.308 -12987297.668 -1695608.032 10 0 60378 78300.00000 0 21821553.454 -13146681.400 1528579.999 10 0 60378 79200.00000 0 21405497.588 -13074658.604 4723121.582 10 0 60378 80100.00000 0 20693229.166 -12730849.365 7826074.631 10 0 60378 81000.00000 0 19733331.615 -12084761.195 10777298.985 10 0 60378 81900.00000 0 18581371.214 -11117303.818 13519615.852 10 0 60378 82800.00000 0 17297487.225 -9821833.517 15999908.099 10 0 60378 83700.00000 0 15943811.495 -8204682.921 18170140.753 10 0 60378 84600.00000 0 14581825.527 -6285153.495 19988282.767 10 0 60378 85500.00000 0 13269765.215 -4094970.221 21419113.086 10 0 60379 0.00000 0 12060181.268 -1677220.386 22434896.285 10 0 60379 900.00000 0 10997755.918 915182.070 23015916.002 10 0 60379 1800.00000 0 10117467.959 3621441.050 23150855.207 10 0 60379 2700.00000 0 9443179.977 6375156.930 22837018.095 10 0 60379 3600.00000 0 8986707.949 9106843.362 22080387.878 10 0 60379 4500.00000 0 8747411.272 11746580.741 20895519.554 10 0 60379 5400.00000 0 8712320.528 14226697.578 19305268.910 10 0 60379 6300.00000 0 8856797.989 16484369.662 17340361.968 10 0 60379 7200.00000 0 9145703.676 18464029.847 15038811.977 10 0 60379 8100.00000 0 9535018.618 20119488.658 12445194.001 10 0 60379 9000.00000 0 9973857.582 21415677.436 9609789.924 10 0 60379 9900.00000 0 10406786.889 22329940.986 6587619.495 10 0 60379 10800.00000 0 10776349.624 22852825.251 3437375.539 10 0 60379 11700.00000 0 11025691.321 22988326.450 220283.681 10 0 60379 12600.00000 0 11101174.435 22753590.720 -3001091.074 10 0 60379 13500.00000 0 10954869.902 22178076.542 -6164067.265 10 0 60379 14400.00000 0 10546818.974 21302215.066 -9207074.804 10 0 60379 15300.00000 0 9846967.950 20175624.907 -12070862.787 10 0 60379 16200.00000 0 8836692.212 18854957.089 -14699662.694 10 0 60379 17100.00000 0 7509843.380 17401461.579 -17042283.293 10 0 60379 18000.00000 0 5873273.721 15878378.787 -19053114.999 10 0 60379 18900.00000 0 3946814.225 14348266.750 -20693023.445 10 0 60379 19800.00000 0 1762706.036 12870377.173 -21930114.494 10 0 60379 20700.00000 0 -635491.885 11498191.347 -22740355.625 10 0 60379 21600.00000 0 -3194473.759 10277219.860 -23108041.767 10 0 60379 22500.00000 0 -5853171.425 9243158.350 -23026096.824 10 0 60379 23400.00000 0 -8545069.568 8420476.353 -22496205.512 10 0 60379 24300.00000 0 -11200755.359 7821497.678 -21528773.453 10 0 60379 25200.00000 0 -13750596.421 7446009.839 -20142716.885 10 0 60379 26100.00000 0 -16127435.698 7281417.629 -18365086.579 10 0 60379 27000.00000 0 -18269191.314 7303432.886 -16230533.749 10 0 60379 27900.00000 0 -20121253.564 7477269.968 -13780628.762 10 0 60379 28800.00000 0 -21638579.763 7759295.134 -11063046.257 10 0 60379 29700.00000 0 -22787400.445 8099059.048 -8130632.892 10 0 60379 30600.00000 0 -23546466.725 8441625.561 -5040376.112 10 0 60379 31500.00000 0 -23907787.956 8730097.592 -1852294.369 10 0 60379 32400.00000 0 -23876830.151 8908232.849 1371729.412 10 0 60379 33300.00000 0 -23472168.271 8923038.489 4569148.239 10 0 60379 34200.00000 0 -22724608.272 8727234.940 7677961.883 10 0 60379 35100.00000 0 -21675816.892 8281484.825 10637914.689 10 0 60379 36000.00000 0 -20376517.541 7556292.968 13391657.382 10 0 60379 36900.00000 0 -18884328.520 6533497.383 15885850.734 10 0 60379 37800.00000 0 -17261334.367 5207288.377 18072190.382 10 0 60379 38700.00000 0 -15571491.882 3584712.546 19908333.768 10 0 60379 39600.00000 0 -13877978.855 1685639.903 21358712.139 10 0 60379 40500.00000 0 -12240595.604 -457805.506 22395212.850 10 0 60379 41400.00000 0 -10713326.871 -2802329.048 22997719.602 10 0 60379 42300.00000 0 -9342164.897 -5295019.415 23154500.806 10 0 60379 43200.00000 0 -8163283.520 -7875310.136 22862438.921 10 0 60379 44100.00000 0 -7201638.692 -10477269.011 22127096.334 10 0 60379 45000.00000 0 -6470053.244 -13032122.157 20962616.136 10 0 60379 45900.00000 0 -5968823.795 -15470909.470 19391458.998 10 0 60379 46800.00000 0 -5685866.173 -17727162.552 17443980.214 10 0 60379 47700.00000 0 -5597393.431 -19739494.700 15157853.891 10 0 60379 48600.00000 0 -5669098.312 -21453995.701 12577354.183 10 0 60379 49500.00000 0 -5857790.804 -22826331.765 9752506.267 10 0 60379 50400.00000 0 -6113422.145 -23823462.608 6738122.544 10 0 60379 51300.00000 0 -6381409.978 -24424903.351 3592742.092 10 0 60379 52200.00000 0 -6605166.276 -24623477.619 377493.599 10 0 60379 53100.00000 0 -6728720.588 -24425529.479 -2845095.968 10 0 60379 54000.00000 0 -6699326.673 -23850584.611 -6012323.368 10 0 60379 54900.00000 0 -6469940.917 -22930474.471 -9062537.187 10 0 60379 55800.00000 0 -6001466.075 -21707960.107 -11936347.141 10 0 60379 56700.00000 0 -5264663.669 -20234913.611 -14577789.932 10 0 60379 57600.00000 0 -4241652.419 -18570134.165 -16935427.957 10 0 60379 58500.00000 0 -2926927.682 -16776891.129 -18963358.493 10 0 60379 59400.00000 0 -1327857.340 -14920298.230 -20622113.085 10 0 60379 60300.00000 0 535368.140 -13064629.880 -21879429.184 10 0 60379 61200.00000 0 2630330.465 -11270692.883 -22710878.872 10 0 60379 62100.00000 0 4913499.002 -9593364.172 -23100342.572 10 0 60379 63000.00000 0 7331820.869 -8079397.769 -23040318.833 10 0 60379 63900.00000 0 9824719.501 -6765592.584 -22532064.598 10 0 60379 64800.00000 0 12326418.422 -5677397.018 -21585563.782 10 0 60379 65700.00000 0 14768493.400 -4828007.745 -20219325.275 10 0 60379 66600.00000 0 17082546.580 -4217999.054 -18460014.817 10 0 60379 67500.00000 0 19202891.239 -3835496.641 -16341928.393 10 0 60379 68400.00000 0 21069135.420 -3656886.801 -13906317.765 10 0 60379 69300.00000 0 22628556.991 -3648029.449 -11200581.685 10 0 60379 70200.00000 0 23838171.540 -3765922.221 -8277338.847 10 0 60379 71100.00000 0 24666407.448 -3960744.059 -5193400.940 10 0 60379 72000.00000 0 25094319.003 -4178190.795 -2008666.110 10 0 60379 72900.00000 0 25116287.830 -4362003.207 1215045.393 10 0 60379 73800.00000 0 24740184.432 -4456580.060 4415190.555 10 0 60379 74700.00000 0 23986984.147 -4409565.361 7529714.486 10 0 60379 75600.00000 0 22889854.691 -4174300.372 10498249.418 10 0 60379 76500.00000 0 21492754.318 -3712036.823 13263278.777 10 0 60379 77400.00000 0 19848599.892 -2993818.013 15771244.159 10 0 60379 78300.00000 0 18017081.808 -2001948.525 17973574.432 10 0 60379 79200.00000 0 16062217.016 -730990.520 19827617.826 10 0 60379 80100.00000 0 14049741.946 811755.653 21297459.852 10 0 60379 81000.00000 0 12044453.422 2606307.457 22354612.190 10 0 60379 81900.00000 0 10107607.441 4620591.557 22978560.041 10 0 60379 82800.00000 0 8294483.171 6811547.329 23157158.018 10 0 60379 83700.00000 0 6652212.482 9126698.161 22886867.297 10 0 60379 84600.00000 0 5217964.363 11506126.983 22172829.465 10 0 60379 85500.00000 0 4017559.033 13884775.647 21028775.288 10 0 60380 0.00000 0 3064568.931 16194974.075 19476769.631 10 0 60380 900.00000 0 2359943.254 18369096.667 17546795.527 10 0 60380 1800.00000 0 1892172.800 20342233.459 15276186.440 10 0 60380 2700.00000 0 1637986.545 22054769.524 12708913.656 10 0 60380 3600.00000 0 1563552.158 23454762.151 9894743.395 10 0 60380 4500.00000 0 1626129.575 24500017.498 6888278.215 10 0 60380 5400.00000 0 1776108.048 25159779.023 3747900.730 10 0 60380 6300.00000 0 1959340.534 25415956.077 534639.817 10 0 60380 7200.00000 0 2119676.302 25263840.101 -2689018.571 10 0 60380 8100.00000 0 2201583.788 24712277.358 -5860352.398 10 0 60380 9000.00000 0 2152751.585 23783290.070 -8917631.859 10 0 60380 9900.00000 0 1926556.016 22511161.315 -11801330.082 10 0 60380 10800.00000 0 1484289.265 20941021.835 -14455291.598 10 0 60380 11700.00000 0 797052.093 19126998.209 -16827834.794 10 0 60380 12600.00000 0 -152770.551 17130000.510 -18872765.935 10 0 60380 13500.00000 0 -1370514.879 15015242.864 -20550284.329 10 0 60380 14400.00000 0 -2848767.949 12849601.487 -21827760.604 10 0 60380 15300.00000 0 -4567442.611 10698921.562 -22680372.748 10 0 60380 16200.00000 0 -6494395.526 8625386.101 -23091587.662 10 0 60380 17100.00000 0 -8586562.976 6685057.024 -23053479.151 10 0 60380 18000.00000 0 -10791567.312 4925691.095 -22566876.588 10 0 60380 18900.00000 0 -13049727.089 3384921.440 -21641341.917 10 0 60380 19800.00000 0 -15296386.945 2088879.627 -20294975.929 10 0 60380 20700.00000 0 -17464469.925 1051314.636 -18554058.128 10 0 60380 21600.00000 0 -19487145.633 273243.923 -16452527.637 10 0 60380 22500.00000 0 -21300502.871 -256850.713 -14031315.655 10 0 60380 23400.00000 0 -22846115.182 -562292.579 -11337542.844 10 0 60380 24300.00000 0 -24073392.370 -676977.547 -8423597.594 10 0 60380 25200.00000 0 -24941620.070 -643693.195 -5346113.420 10 0 60380 26100.00000 0 -25421602.589 -512062.048 -2164865.722 10 0 60380 27000.00000 0 -25496840.954 -336196.998 1058390.365 10 0 60380 27900.00000 0 -25164197.664 -172168.861 4261118.241 10 0 60380 28800.00000 0 -24434021.151 -75393.696 7381210.793 10 0 60380 29700.00000 0 -23329725.552 -98050.588 10358190.555 10 0 60380 30600.00000 0 -21886844.113 -286639.066 13134376.036 10 0 60380 31500.00000 0 -20151596.326 -679779.185 15655991.969 10 0 60380 32400.00000 0 -18179028.955 -1306346.926 17874202.626 10 0 60380 33300.00000 0 -16030808.489 -2184023.439 19746048.996 10 0 60380 34200.00000 0 -13772756.755 -3318319.280 21235272.574 10 0 60380 35100.00000 0 -11472231.656 -4702115.068 22313010.772 10 0 60380 36000.00000 0 -9195461.107 -6315738.640 22958351.366 10 0 60380 36900.00000 0 -7004939.967 -8127576.585 23158735.899 10 0 60380 37800.00000 0 -4956996.976 -10095196.135 22910204.662 10 0 60380 38700.00000 0 -3099631.640 -12166932.280 22217478.524 10 0 60380 39600.00000 0 -1470709.996 -14283875.766 21093875.724 10 0 60380 40500.00000 0 -96593.446 -16382180.889 19561064.525 10 0 60380 41400.00000 0 1008742.856 -18395598.541 17648655.512 10 0 60380 42300.00000 0 1844065.643 -20258130.149 15393640.254 10 0 60380 43200.00000 0 2420698.555 -21906692.644 12839685.910 10 0 60380 44100.00000 0 2761804.336 -23283683.530 10036298.235 10 0 60380 45000.00000 0 2901164.332 -24339338.660 7037868.208 10 0 60380 45900.00000 0 2881506.702 -25033783.409 3902620.057 10 0 60380 46800.00000 0 2752453.981 -25338690.345 691480.744 10 0 60380 47700.00000 0 2568177.074 -25238472.612 -2533107.042 10 0 60380 48600.00000 0 2384855.560 -24730961.677 -5708404.873 10 0 60380 49500.00000 0 2258052.718 -23827539.728 -8772607.085 10 0 60380 50400.00000 0 2240117.683 -22552720.168 -11666052.882 10 0 60380 51300.00000 0 2377726.129 -20943193.119 -14332397.369 10 0 60380 52200.00000 0 2709665.137 -19046375.650 -16719717.709 10 0 60380 53100.00000 0 3264957.504 -16918527.550 -18781531.880 10 0 60380 54000.00000 0 4061406.240 -14622511.926 -20477709.541 10 0 60380 54900.00000 0 5104622.032 -12225294.818 -21775256.832 10 0 60380 55800.00000 0 6387575.796 -9795289.007 -22648959.647 10 0 60380 56700.00000 0 7890696.032 -7399653.457 -23081872.961 10 0 60380 57600.00000 0 9582507.576 -5101661.419 -23065646.993 10 0 60380 58500.00000 0 11420785.333 -2958247.031 -22600684.264 10 0 60380 59400.00000 0 13354174.876 -1017832.357 -21696125.015 10 0 60380 60300.00000 0 15324212.077 681475.255 -20369661.788 10 0 60380 61200.00000 0 17267657.207 2113241.433 -18647187.271 10 0 60380 62100.00000 0 19119045.709 3263563.467 -16562282.733 10 0 60380 63000.00000 0 20813348.834 4131395.337 -14155557.391 10 0 60380 63900.00000 0 22288632.716 4728327.480 -11473851.969 10 0 60380 64800.00000 0 23488604.627 5077832.623 -8569322.298 10 0 60380 65700.00000 0 24364939.924 5214011.403 -5498421.093 10 0 60380 66600.00000 0 24879292.485 5179892.421 -2320798.086 10 0 60380 67500.00000 0 25004904.840 5025359.991 901859.834 10 0 60380 68400.00000 0 24727751.003 4804798.253 4107025.700 10 0 60380 69300.00000 0 24047164.720 4574552.037 7232543.374 10 0 60380 70200.00000 0 22975927.402 4390312.251 10217828.785 10 0 60380 71100.00000 0 21539812.544 4304536.424 13005038.431 10 0 60380 72000.00000 0 19776606.075 4364013.285 15540182.842 10 0 60380 72900.00000 0 17734643.717 4607673.902 17774164.097 10 0 60380 73800.00000 0 15470926.235 5064741.436 19663718.077 10 0 60380 74700.00000 0 13048890.765 5753297.255 21172244.107 10 0 60380 75600.00000 0 10535930.245 6679323.773 22270506.888 10 0 60380 76500.00000 0 8000763.134 7836264.606 22937198.013 10 0 60380 77400.00000 0 5510761.526 9205121.227 23159346.855 10 0 60380 78300.00000 0 3129347.323 10755083.199 22932573.328 10 0 60380 79200.00000 0 913563.252 12444667.083 22261177.677 10 0 60380 80100.00000 0 -1088081.607 14223318.055 21158065.252 10 0 60380 81000.00000 0 -2837403.310 16033409.077 19644507.058 10 0 60380 81900.00000 0 -4307897.854 17812555.765 17749739.710 10 0 60380 82800.00000 0 -5485603.420 19496151.659 15510411.363 10 0 60380 83700.00000 0 -6369434.422 21020018.938 12969883.076 10 0 60380 84600.00000 0 -6970973.545 22323064.292 10177397.888 10 0 60380 85500.00000 0 -7313730.592 23349828.711 7187132.724 10 0 60381 0.00000 0 -7431899.281 24052823.839 4057151.061 10 0 60381 900.00000 0 -7368664.576 24394556.242 848274.596 10 0 60381 1800.00000 0 -7174132.112 24349152.433 -2377099.846 10 0 60381 2700.00000 0 -6902967.972 23903516.208 -5556220.350 10 0 60381 3600.00000 0 -6611849.232 23057967.134 -8627208.278 10 0 60381 4500.00000 0 -6356834.350 21826332.414 -11530271.701 10 0 60381 5400.00000 0 -6190765.945 20235487.098 -14208878.943 10 0 60381 6300.00000 0 -6160817.299 18324361.102 -16610868.381 10 0 60381 7200.00000 0 -6306287.798 16142454.280 -18689471.918 10 0 60381 8100.00000 0 -6656741.883 13747921.646 -20404231.507 10 0 60381 9000.00000 0 -7230571.324 11205309.020 -21721790.472 10 0 60381 9900.00000 0 -8034042.507 8583034.102 -22616543.967 10 0 60381 10800.00000 0 -9060869.657 5950718.496 -23071136.056 10 0 60381 11700.00000 0 -10292332.525 3376482.234 -23076793.993 10 0 60381 12600.00000 0 -11697933.905 924313.685 -22633493.613 10 0 60381 13500.00000 0 -13236569.468 -1348375.818 -21749953.131 10 0 60381 14400.00000 0 -14858160.825 -3392911.342 -20443455.994 10 0 60381 15300.00000 0 -16505683.122 -5171138.612 -18739506.720 10 0 60381 16200.00000 0 -18117501.945 -6656760.156 -16671326.897 10 0 60381 17100.00000 0 -19629921.335 -7836169.166 -14279201.545 10 0 60381 18000.00000 0 -20979835.826 -8708748.141 -11609688.945 10 0 60381 18900.00000 0 -22107375.146 -9286621.875 -8714709.664 10 0 60381 19800.00000 0 -22958430.587 -9593877.271 -5650532.814 10 0 60381 20700.00000 0 -23486957.072 -9665284.756 -2476679.623 10 0 60381 21600.00000 0 -23656954.488 -9544576.972 745234.080 10 0 60381 22500.00000 0 -23444045.430 -9282358.753 3952693.738 10 0 60381 23400.00000 0 -22836583.472 -8933737.749 7083496.890 10 0 60381 24300.00000 0 -21836245.882 -8555776.452 10076955.471 10 0 60381 25200.00000 0 -20458086.242 -8204873.560 12875066.434 10 0 60381 26100.00000 0 -18730044.962 -7934185.265 15423628.407 10 0 60381 27000.00000 0 -16691938.178 -7791195.023 17673283.326 10 0 60381 27900.00000 0 -14393966.967 -7815533.884 19580463.711 10 0 60381 28800.00000 0 -11894808.540 -8037142.792 21108228.117 10 0 60381 29700.00000 0 -9259368.064 -8474853.897 22226969.552 10 0 60381 30600.00000 0 -6556283.468 -9135450.434 22914984.040 10 0 60381 31500.00000 0 -3855285.645 -10013244.931 23158889.021 10 0 60381 32400.00000 0 -1224522.156 -11090194.074 22953883.916 10 0 60381 33300.00000 0 1272045.953 -12336546.463 22303847.915 10 0 60381 34200.00000 0 3577067.577 -13711997.437 21221272.784 10 0 60381 35100.00000 0 5641945.796 -15167304.164 19727031.336 10 0 60381 36000.00000 0 7428614.841 -16646294.966 17849985.061 10 0 60381 36900.00000 0 8910876.503 -18088190.169 15626437.338 10 0 60381 37800.00000 0 10075240.733 -19430138.458 13099441.537 10 0 60381 38700.00000 0 10921235.577 -20609863.163 10317976.176 10 0 60381 39600.00000 0 11461173.512 -21568307.699 7336002.111 10 0 60381 40500.00000 0 11719384.062 -22252168.836 4211419.288 10 0 60381 41400.00000 0 11730945.017 -22616210.551 1004942.919 10 0 60381 42300.00000 0 11539965.918 -22625259.958 -2221079.037 10 0 60381 43200.00000 0 11197496.669 -22255799.855 -5403883.688 10 0 60381 44100.00000 0 10759150.261 -21497089.239 -8481521.947 10 0 60381 45000.00000 0 10282541.054 -20351762.987 -11394073.259 10 0 60381 45900.00000 0 9824648.098 -18835884.031 -14084821.636 10 0 60381 46800.00000 0 9439216.238 -16978444.594 -16501369.059 10 0 60381 47700.00000 0 9174306.275 -14820336.545 -18596663.612 10 0 60381 48600.00000 0 9070098.907 -12412833.498 -20329921.617 10 0 60381 49500.00000 0 9157046.370 -9815647.963 -21667425.373 10 0 60381 50400.00000 0 9454450.623 -7094644.784 -22583180.768 10 0 60381 51300.00000 0 9969528.707 -4319306.503 -23059422.040 10 0 60381 52200.00000 0 10697005.016 -1560056.459 -23086954.144 10 0 60381 53100.00000 0 11619247.792 1114448.699 -22665326.470 10 0 60381 54000.00000 0 12706944.051 3639944.508 -21802835.033 10 0 60381 54900.00000 0 13920284.337 5958993.304 -20516353.603 10 0 60381 55800.00000 0 15210607.187 8023127.263 -18830997.563 10 0 60381 56700.00000 0 16522433.829 9794611.681 -16779627.491 10 0 60381 57600.00000 0 17795807.216 11247756.385 -14402202.513 10 0 60381 58500.00000 0 18968836.735 12369722.192 -11744996.420 10 0 60381 59400.00000 0 19980341.320 13160790.629 -8859692.149 10 0 60381 60300.00000 0 20772479.665 13634087.656 -5802372.555 10 0 60381 61200.00000 0 21293256.802 13814775.024 -2632427.492 10 0 60381 62100.00000 0 21498801.698 13738745.193 588601.268 10 0 60381 63000.00000 0 21355320.178 13450876.422 3798214.600 10 0 60381 63900.00000 0 20840641.303 13002922.931 6934166.684 10 0 60381 64800.00000 0 19945292.439 12451130.074 9935668.257 10 0 60381 65700.00000 0 18673058.044 11853675.677 12744559.326 10 0 60381 66600.00000 0 17040998.824 11268045.646 15306428.949 10 0 60381 67500.00000 0 15078930.314 10748454.329 17571660.995 10 0 60381 68400.00000 0 12828382.301 10343417.899 19496386.437 10 0 60381 69300.00000 0 10341081.900 10093582.375 21043324.603 10 0 60381 70200.00000 0 7677022.553 10029897.093 22182498.073 10 0 60381 71100.00000 0 4902198.060 10172209.924 22891808.290 10 0 60381 72000.00000 0 2086094.430 10528343.067 23157461.410 10 0 60381 72900.00000 0 -700957.907 11093688.298 22974236.660 10 0 60381 73800.00000 0 -3390463.268 11851339.188 22345592.061 10 0 60381 74700.00000 0 -5918361.640 12772755.573 21283605.247 10 0 60381 75600.00000 0 -8227444.775 13818933.611 19808749.838 10 0 60381 76500.00000 0 -10269488.267 14942033.659 17949510.771 10 0 60381 77400.00000 0 -12007011.732 16087399.049 15741844.828 10 0 60381 78300.00000 0 -13414594.330 17195882.226 13228495.553 10 0 60381 79200.00000 0 -14479691.016 18206381.452 10458174.564 10 0 60381 80100.00000 0 -15202915.395 19058481.899 7484624.102 10 0 60381 81000.00000 0 -15597777.330 19695090.010 4365578.229 10 0 60381 81900.00000 0 -15689886.245 20064949.658 1161642.413 10 0 60381 82800.00000 0 -15515653.709 20124933.066 -2064886.692 10 0 60381 83700.00000 0 -15120550.190 19842008.541 -5251237.930 10 0 60381 84600.00000 0 -14556990.039 19194800.423 -8335394.438 10 0 60381 85500.00000 0 -13881934.733 18174673.756 -11257309.637 99